Location: Boursonne
(49.2024°N, 3.0468°E)
Time: 00:36:20
(UTC+00:00)

GP-B - Pass Details

Date: 03 March 2021
Orbit: 631 x 635 km, 89.8° (Epoch: 14 April)

Event Time Altitude Azimuth Distance (km) Brightness Sun altitude
Rises 19:22:17 0° 186° (S) 2,919 6.5 -18.4°
Reaches altitude 10° 19:24:30 10° 189° (S) 2,016 5.7 -18.7°
Maximum altitude 19:28:54 62° 271° (W) 717 3.6 -19.4°
Drops below altitude 10° 19:33:20 10° 353° (N) 2,033 6.0 -20.1°
Sets 19:35:36 0° 356° (N) 2,947 6.8 -20.5°
